Change the Weather History Date:

Saturday, February 9, 2013

  Actual Average Record
Temperature  
Mean Temperature 72 °F -  
Max Temperature 84 °F - - ()
Min Temperature 59 °F - - ()
Cooling Degree Days 6    
Growing Degree Days 22 (Base 50)    
Moisture  
Dew Point 42 °F    
Average Humidity 39    
Maximum Humidity 63    
Minimum Humidity 18    
Precipitation  
Precipitation 0.00 in - - ()
Sea Level Pressure  
Sea Level Pressure 29.98 in    
Wind  
Wind Speed 5 mph ()    
Max Wind Speed 13 mph    
Max Gust Speed -    
T = Trace of Precipitation, MM = Missing Value Source: Averaged Metar Reports

Daily Weather History Graph

Daily Weather History Graph

Search for Another Location

Airport or City:

Trip Planner

Search our weather history database for the weather conditions in past years. The results will help you decide how hot, cold, wet, or windy it might be!

Date:

Astronomy

Feb. 09, 2013 Rise Set
Actual Time 6:24 AM EET 5:29 PM EET
Civil Twilight 6:00 AM EET 5:53 PM EET
Nautical Twilight 5:32 AM EET 6:21 PM EET
Astronomical Twilight 5:05 AM EET 6:48 PM EET
Moon 5:21 AM EET (2/9) 4:46 PM EET (2/9)
Length of Visible Light 11h 52m
Length of Day
11h 04m
Waning Crescent, 1% of the Moon is Illuminated
Feb 9
Waning Crescent
Feb 10
New
Feb 17
First Quarter
Feb 25
Full
Mar 4
Last Quarter

Hourly Weather History & Observations

Time (EET) Temp. Dew Point Humidity Pressure Visibility Wind Dir Wind Speed Gust Speed Precip Events Conditions
12:00 AM 59.0 °F 46.4 °F 63% 29.95 in - Variable 2.3 mph - N/A   Clear
1:00 AM 62.6 °F 48.2 °F 59% 29.95 in - North 4.6 mph - N/A   Clear
2:00 AM 62.6 °F 46.4 °F 55% 29.95 in - NNW 4.6 mph - N/A   Clear
3:00 AM 62.6 °F 48.2 °F 59% 29.95 in - North 4.6 mph - N/A   Clear
4:00 AM 62.6 °F 48.2 °F 59% 29.95 in - NNW 5.8 mph - N/A   Clear
5:00 AM 60.8 °F 48.2 °F 63% 29.98 in - NNW 5.8 mph - N/A   Clear
6:00 AM 60.8 °F 46.4 °F 59% 29.98 in - NW 5.8 mph - N/A   Clear
7:00 AM 62.6 °F 46.4 °F 55% 30.01 in - NNW 6.9 mph - N/A   Clear
8:00 AM 68.0 °F 44.6 °F 43% 30.01 in - NNW 3.5 mph - N/A   Clear
9:00 AM 75.2 °F 44.6 °F 34% 30.04 in - North 8.1 mph - N/A   Clear
10:00 AM 75.2 °F 32.0 °F 21% 30.04 in - NNE 10.4 mph - N/A   Clear
11:00 AM 78.8 °F 33.8 °F 20% 30.01 in - NNE 11.5 mph - N/A   Clear
12:00 PM 80.6 °F 50.0 °F 34% 30.01 in - NE 12.7 mph - N/A   Clear
1:00 PM 82.4 °F 35.6 °F 19% 29.98 in - NE 9.2 mph - N/A   Clear
2:00 PM 82.4 °F 35.6 °F 19% 29.95 in - NE 8.1 mph - N/A   Clear
3:00 PM 84.2 °F 35.6 °F 18% 29.95 in - ENE 5.8 mph - N/A   Clear
4:00 PM 80.6 °F 39.2 °F 23% 29.95 in - SSE 4.6 mph - N/A   Clear
5:00 PM 77.0 °F 41.0 °F 28% 29.95 in - Calm Calm - N/A   Clear
6:00 PM 71.6 °F 39.2 °F 31% 29.95 in - Variable 2.3 mph - N/A   Clear
7:00 PM 68.0 °F 42.8 °F 40% 29.98 in - Calm Calm - N/A   Clear
8:00 PM 64.4 °F 41.0 °F 42% 29.98 in - Calm Calm - N/A   Clear
9:00 PM 64.4 °F 35.6 °F 34% 29.98 in - NNW 2.3 mph - N/A   Clear
10:00 PM 62.6 °F 33.8 °F 34% 29.98 in - WNW 2.3 mph - N/A   Clear
11:00 PM 64.4 °F 33.8 °F 32% 29.98 in - NW 4.6 mph - N/A   Clear